Regional Weather Roundup
Issued by NWS

Home | Current Version | Previous Version | Graphics & Text | Print | Product List | Glossary On
Versions: 1 2 3 4 5 6 7 8 9 10 11 12 13 14 15 16 17 18 19 20 21 22 23 24 25 26 27 28 29 30 31 32 33 34 35 36 37 38 39 40 41 42 43 44 45 46 47 48 49 50
755
ASUS45 KPSR 191010
RWRAZ

ARIZONA HOURLY REGIONAL WEATHER ROUNDUP
NATIONAL WEATHER SERVICE PHOENIX AZ
300 AM MST THU OCT 19 2017

NOTE: FAIR INDICATES FEW OR NO CLOUDS BELOW 12,000 FEET WITH NO
SIGNIFICANT WEATHER AND/OR OBSTRUCTIONS TO VISIBILITY.

AZZ001>003-036-191100-
NORTHWEST ARIZONA

CITY           SKY/WX    TMP DP  RH WIND       PRES   REMARKS
BULLHEAD CITY  CLEAR     70  21  16 CALM      29.81S
KINGMAN        CLEAR     54  30  40 CALM      29.96F
$$

AZZ004>008-015-016-018-191100-
NORTH CENTRAL ARIZONA

CITY           SKY/WX    TMP DP  RH WIND       PRES   REMARKS
GRAND CANYON   PTCLDY    37  24  59 CALM      30.17F
WILLIAMS       PTCLDY    45  30  57 S9        30.17S
PRESCOTT       PTCLDY    54  32  43 S9        30.06F
FLAGSTAFF      PTCLDY    41  28  60 CALM      30.19F
PAYSON           N/A     61  37  41 CALM      30.09S
PAGE           PTCLDY    58  27  30 CALM      30.03S
$$

AZZ009>014-017-191100-
NORTHEAST ARIZONA

CITY           SKY/WX    TMP DP  RH WIND       PRES   REMARKS
WINSLOW        MOCLDY    62  26  25 SE3       30.06F
SAINT JOHNS    CLOUDY    57  27  31 S3        30.12F
WINDOW ROCK    MOCLDY    39  17  41 S3        30.19F
SHOW LOW       CLOUDY    59  32  36 SE7       30.17F
$$

AZZ540-542>544-546-548-191100-
GREATER PHOENIX AREA

CITY           SKY/WX    TMP DP  RH WIND       PRES   REMARKS
PHOENIX        MOCLDY    79  39  23 E6        29.79F
BUCKEYE        PTCLDY    72  28  20 N6        29.81S
LUKE AFB       MOCLDY    73  41  32 CALM      29.79F
DEER VALLEY    MOCLDY    75  37  25 E3        29.82F
SCOTTSDALE     MOCLDY    76  42  29 CALM      29.84F
MESA-GATEWAY   PTCLDY    72  37  28 SE7       29.84F
$$

AZZ539-553-191100-
SOUTHWEST MARICOPA COUNTY AND PINAL COUNTY

CITY           SKY/WX    TMP DP  RH WIND       PRES   REMARKS
CASA GRANDE    NOT AVBL
$$

AZZ503-504-507>509-191100-
SOUTHEAST ARIZONA

CITY           SKY/WX    TMP DP  RH WIND       PRES   REMARKS
TUCSON         CLEAR     68  36  30 S8        29.95F
DAVIS-MONTHAN  PTCLDY    70  36  28 SE1       29.92F
NOGALES        CLEAR     58  38  47 CALM      30.02F
SIERRA VISTA   CLEAR     65  34  32 SW7       30.07F
DOUGLAS        CLEAR     57  41  55 E3        30.03F
SAFFORD        PTCLDY    70  42  36 E9        29.95F
$$

AZZ532-191100-
SOUTHWEST ARIZONA

CITY           SKY/WX    TMP DP  RH WIND       PRES   REMARKS
YUMA           CLEAR     72  44  36 SE5       29.77F
$$

CAZ041-043-047-048-061-525>527-560>570-191100-
SOUTHERN CALIFORNIA

CITY           SKY/WX    TMP DP  RH WIND       PRES   REMARKS
DOWNTOWN L.A.  CLEAR     65  57  75 CALM      29.89F
L.A. AIRPORT   CLEAR     65  60  84 CALM      29.90S
SAN DIEGO      CLOUDY    68  62  81 S7        29.91F
BURBANK        CLEAR     63  50  62 CALM      29.90F
ONTARIO        CLEAR     64  51  62 CALM      29.90F
RIVERSIDE      CLEAR     62  53  72 SE3       29.90F
PALM SPRINGS   CLEAR     73  51  46 CALM      29.79F
EL CENTRO NAS  CLEAR     79  35  20 W9        29.77F
IMPERIAL       CLEAR     75  41  29 W9        29.75F
BLYTHE         CLEAR     70  30  22 W5        29.77F
NEEDLES        CLEAR     68  14  12 W6        29.82F
$$

NVZ020-UTZ003-191100-
SOUTHERN NEVADA-UTAH

CITY           SKY/WX    TMP DP  RH WIND       PRES   REMARKS
LAS VEGAS      MOCLDY    69  23  17 SW3       29.88F
SALT LAKE CITY PTCLDY    45  29  53 SE8       30.02F
$$

NMZ009-TXZ055-191100-
NEW MEXICO-WEST TEXAS

CITY           SKY/WX    TMP DP  RH WIND       PRES   REMARKS
ALBUQUERQUE    CLOUDY    52  27  38 N13       30.13F
EL PASO        MOCLDY    65  53  65 NE5       30.05F
$$


........................KEY........................
SKY/WX - SKY CONDITION/WEATHER
TMP    - TEMPERATURE IN FAHRENHEIT
DP     - DEW POINT IN FAHRENHEIT
RH     - RELATIVE HUMIDITY IN PERCENT
WIND   - DIRECTION AND SPEED IN MILES PER HOUR (MPH)
VRB    - VARIABLE WIND DIRECTION
PRES   - MEAN SEA LEVEL PRESSURE IN INCHES OF MERCURY
         F - FALLING PRESSURE   R - RISING PRESSURE
         S - STEADY PRESSURE
VSB    - VISIBILITY IN MILES
HX     - HEAT INDEX IN FAHRENHEIT
WCI    - WIND CHILL INDEX IN FAHRENHEIT
TC     - TEMPERATURE IN CELSIUS WHICH IS ALSO KNOWN AS
         TEMPERATURE IN CENTIGRADE
AFB    - AIR FORCE BASE
         LUKE AFB IS LUKE AIR FORCE BASE
         DAVIS-MONTHAN IS DAVIS-MONTHAN AIR FORCE BASE
NAS    - NAVAL AIR STATION
         EL CENTRO NAS IS EL CENTRO NAVAL AIR STATION
N/A    - NOT AVAILABLE





USA.gov is the U.S. government's official web portal to all federal, state and local government web resources and services.